QPF
0.03 0.03 0.04 0.04 0.04 0.05 0.08 0.07 0.06 0.09 0.07 0.06 0.04 0.03 0.02 0.02 0.03 0.03 0.04 0.03 0.03 0.04 0.05 0.06 0.07 0.07 0.06 0.06 0.06 0.07 0.09 0.09 0.07 0.06 0.06 0.05 0.04 0.04 0.04 0.03 0.04 0.05 0.05
0.04 0.05 0.06 0.07 0.05 0.07 0.09 0.07 0.05 0.07 0.07 0.06 0.05 0.03 0.02 0.03 0.03 0.03 0.03 0.04 0.04 0.04 0.04 0.05 0.06 0.08 0.08 0.08 0.08 0.08 0.08 0.08 0.08 0.07 0.07 0.07 0.07 0.05 0.05 0.03 0.04 0.04 0.06
0.04 0.05 0.08 0.08 0.07 0.06 0.08 0.09 0.07 0.06 0.05 0.05 0.05 0.04 0.04 0.03 0.03 0.03 0.04 0.05 0.08 0.07 0.06 0.05 0.05 0.07 0.09 0.11 0.11 0.10 0.11 0.11 0.11 0.10 0.08 0.08 0.08 0.07 0.06 0.05 0.04 0.03 0.04
0.03 0.05 0.06 0.07 0.08 0.07 0.09 0.11 0.09 0.07 0.06 0.06 0.06 0.06 0.05 0.04 0.03 0.03 0.04 0.05 0.07 0.07 0.08 0.07 0.06 0.05 0.07 0.10 0.11 0.12 0.12 0.12 0.12 0.12 0.10 0.08 0.07 0.06 0.05 0.06 0.05 0.04 0.03
0.04 0.05 0.05 0.06 0.06 0.07 0.09 0.09 0.10 0.11 0.09 0.08 0.08 0.07 0.05 0.04 0.05 0.04 0.04 0.06 0.07 0.07 0.07 0.08 0.06 0.05 0.05 0.08 0.11 0.12 0.11 0.11 0.11 0.13 0.11 0.10 0.09 0.07 0.05 0.05 0.06 0.06 0.04
0.04 0.06 0.05 0.07 0.08 0.08 0.10 0.09 0.10 0.11 0.08 0.07 0.04 0.03 0.03 0.03 0.05 0.05 0.04 0.04 0.06 0.07 0.09 0.10 0.10 0.07 0.05 0.05 0.07 0.10 0.12 0.15 0.14 0.13 0.11 0.10 0.08 0.07 0.07 0.06 0.06 0.06 0.05
0.05 0.06 0.05 0.07 0.08 0.08 0.10 0.10 0.11 0.11 0.08 0.05 0.04 0.04 0.03 0.03 0.03 0.03 0.03 0.03 0.04 0.06 0.10 0.11 0.11 0.10 0.07 0.04 0.04 0.07 0.09 0.12 0.13 0.12 0.11 0.10 0.09 0.08 0.09 0.08 0.07 0.06 0.05
0.06 0.05 0.08 0.09 0.09 0.10 0.11 0.10 0.10 0.10 0.08 0.05 0.05 0.05 0.04 0.04 0.02 0.01 0.01 0.01 0.02 0.04 0.06 0.07 0.08 0.08 0.07 0.06 0.05 0.05 0.07 0.10 0.12 0.10 0.08 0.08 0.09 0.09 0.12 0.15 0.15 0.11 0.07
0.09 0.10 0.09 0.09 0.11 0.12 0.11 0.08 0.08 0.08 0.07 0.05 0.05 0.05 0.04 0.04 0.02 0.02 0.01 0.02 0.02 0.03 0.04 0.05 0.07 0.07 0.06 0.07 0.07 0.06 0.07 0.08 0.09 0.09 0.07 0.07 0.07 0.07 0.08 0.13 0.18 0.18 0.15
0.09 0.11 0.12 0.12 0.12 0.11 0.09 0.07 0.06 0.07 0.07 0.06 0.05 0.05 0.05 0.04 0.04 0.02 0.02 0.02 0.02 0.02 0.03 0.04 0.05 0.07 0.06 0.06 0.05 0.04 0.04 0.04 0.04 0.07 0.08 0.08 0.07 0.06 0.07 0.09 0.11 0.11 0.11
0.04 0.05 0.07 0.08 0.07 0.07 0.05 0.04 0.04 0.04 0.04 0.04 0.04 0.04 0.05 0.05 0.04 0.05 0.04 0.04 0.04 0.03 0.04 0.05 0.06 0.06 0.06 0.06 0.06 0.04 0.03 0.03 0.03 0.05 0.07 0.08 0.09 0.08 0.06 0.07 0.10 0.10 0.08
0.03 0.02 0.03 0.03 0.03 0.04 0.04 0.04 0.03 0.03 0.03 0.03 0.04 0.05 0.06 0.06 0.05 0.05 0.05 0.05 0.06 0.05 0.05 0.06 0.08 0.08 0.07 0.06 0.05 0.04 0.03 0.02 0.02 0.03 0.03 0.04 0.04 0.06 0.06 0.06 0.09 0.10 0.09
0.02 0.03 0.02 0.02 0.02 0.03 0.03 0.03 0.03 0.02 0.03 0.03 0.04 0.04 0.05 0.07 0.07 0.07 0.07 0.07 0.07 0.05 0.05 0.04 0.05 0.07 0.09 0.07 0.05 0.04 0.04 0.03 0.02 0.02 0.02 0.03 0.04 0.04 0.04 0.05 0.06 0.07 0.08
0.02 0.03 0.02 0.01 0.01 0.02 0.02 0.03 0.03 0.03 0.02 0.03 0.03 0.04 0.04 0.05 0.07 0.07 0.07 0.07 0.06 0.06 0.06 0.05 0.06 0.07 0.08 0.10 0.08 0.06 0.05 0.04 0.03 0.02 0.02 0.02 0.03 0.04 0.05 0.05 0.05 0.06 0.06
0.01 0.01 0.01 0.01 0.02 0.03 0.03 0.03 0.03 0.02 0.02 0.02 0.03 0.04 0.04 0.04 0.04 0.04 0.03 0.05 0.05 0.04 0.04 0.04 0.04 0.04 0.04 0.04 0.06 0.07 0.07 0.05 0.04 0.03 0.02 0.02 0.02 0.03 0.03 0.04 0.04 0.05 0.06
0.01 0.01 0.01 0.01 0.02 0.02 0.03 0.03 0.03 0.02 0.03 0.03 0.02 0.03 0.04 0.03 0.03 0.02 0.02 0.03 0.03 0.03 0.03 0.02 0.02 0.01 0.02 0.02 0.02 0.03 0.04 0.04 0.04 0.03 0.03 0.03 0.02 0.02 0.02 0.02 0.02 0.03 0.05
0.01 0.01 0.01 0.02 0.02 0.02 0.03 0.03 0.02 0.02 0.02 0.02 0.02 0.02 0.03 0.04 0.03 0.03 0.02 0.03 0.03 0.03 0.03 0.01 0.01 0.01 0.02 0.02 0.01 0.01 0.02 0.03 0.03 0.03 0.02 0.03 0.02 0.02 0.01 0.02 0.01 0.01 0.02
0.01 0.01 0.01 0.02 0.02 0.02 0.02 0.02 0.02 0.01 0.02 0.02 0.02 0.03 0.03 0.03 0.04 0.03 0.03 0.02 0.02 0.03 0.03 0.02 0.01 0.01 0.02 0.02 0.02 0.01 0.01 0.03 0.03 0.02 0.02 0.02 0.03 0.02 0.02 0.01 0.02 0.01 0.02
0.01 0.01 0.01 0.02 0.02 0.02 0.02 0.02 0.02 0.01 0.01 0.02 0.02 0.03 0.02 0.03 0.03 0.03 0.03 0.02 0.02 0.03 0.04 0.04 0.02 0.02 0.02 0.02 0.02 0.02 0.02 0.04 0.04 0.02 0.02 0.02 0.02 0.03 0.02 0.02 0.02 0.02 0.02
0.01 0.01 0.02 0.02 0.02 0.02 0.02 0.02 0.02 0.02 0.02 0.02 0.01 0.01 0.01 0.02 0.03 0.04 0.03 0.03 0.03 0.04 0.04 0.03 0.02 0.02 0.02 0.02 0.03 0.03 0.03 0.03 0.04 0.04 0.03 0.02 0.02 0.02 0.03 0.02 0.03 0.03 0.03
0.02 0.01 0.02 0.03 0.02 0.02 0.01 0.02 0.02 0.02 0.02 0.02 0.01 0.01 0.01 0.01 0.02 0.03 0.02 0.02 0.02 0.03 0.03 0.03 0.02 0.02 0.02 0.03 0.04 0.04 0.03 0.02 0.02 0.03 0.04 0.02 0.02 0.02 0.02 0.02 0.02 0.02 0.02
0.02 0.02 0.01 0.01 0.01 0.01 0.02 0.02 0.02 0.02 0.04 0.04 0.03 0.03 0.03 0.02 0.02 0.02 0.02 0.02 0.03 0.03 0.03 0.02 0.02 0.03 0.05 0.05 0.05 0.03 0.02 0.02 0.02 0.02 0.03 0.03 0.03 0.02 0.02 0.01 0.01 0.01 0.02
0.02 0.01 0.01 0.01 0.01 0.01 0.01 0.01 0.01 0.02 0.04 0.04 0.04 0.05 0.03 0.02 0.03 0.02 0.02 0.02 0.02 0.03 0.04 0.04 0.04 0.04 0.05 0.04 0.03 0.02 0.02 0.01 0.01 0.01 0.02 0.04 0.04 0.03 0.01 0.00 0.00 0.00 0.01
0.02 0.01 0.01 0.01 0.02 0.01 0.01 0.01 0.01 0.02 0.03 0.03 0.04 0.04 0.03 0.03 0.03 0.02 0.02 0.02 0.02 0.03 0.04 0.05 0.04 0.03 0.03 0.04 0.03 0.02 0.02 0.02 0.02 0.02 0.02 0.03 0.02 0.01 0.01 0.01 0.00 0.00 0.00
0.02 0.01 0.01 0.01 0.02 0.02 0.02 0.02 0.02 0.03 0.03 0.02 0.02 0.02 0.02 0.03 0.02 0.03 0.02 0.02 0.03 0.03 0.03 0.04 0.04 0.04 0.04 0.04 0.04 0.03 0.02 0.02 0.02 0.02 0.02 0.02 0.03 0.02 0.01 0.01 0.01 0.01 0.01
0.02 0.02 0.01 0.01 0.02 0.02 0.02 0.01 0.01 0.01 0.01 0.01 0.02 0.02 0.01 0.02 0.02 0.03 0.03 0.03 0.03 0.02 0.03 0.03 0.03 0.05 0.05 0.04 0.04 0.04 0.02 0.02 0.02 0.02 0.02 0.03 0.04 0.03 0.02 0.02 0.01 0.01 0.01
MSLP
1017.31 1017.56 1017.81 1018.03 1018.22 1018.37 1018.46 1018.48 1018.43 1018.30 1018.11 1017.87 1017.62 1017.39 1017.24 1017.20 1017.30 1017.54 1017.90 1018.34 1018.81 1019.24 1019.59 1019.84 1019.97 1020.02 1020.01 1019.98 1019.98 1020.02 1020.12 1020.27 1020.45 1020.63 1020.78 1020.91 1020.99 1021.04 1021.07 1021.08 1021.10 1021.11 1021.14
1017.47 1017.67 1017.87 1018.07 1018.24 1018.38 1018.46 1018.49 1018.44 1018.32 1018.13 1017.90 1017.64 1017.39 1017.19 1017.09 1017.10 1017.25 1017.51 1017.86 1018.27 1018.67 1019.03 1019.33 1019.53 1019.66 1019.73 1019.76 1019.80 1019.85 1019.93 1020.05 1020.19 1020.34 1020.48 1020.61 1020.71 1020.79 1020.85 1020.89 1020.92 1020.95 1020.98
1017.71 1017.86 1018.02 1018.19 1018.34 1018.46 1018.54 1018.57 1018.53 1018.43 1018.25 1018.03 1017.76 1017.49 1017.24 1017.06 1016.96 1016.98 1017.11 1017.35 1017.66 1018.01 1018.36 1018.68 1018.95 1019.16 1019.31 1019.42 1019.49 1019.56 1019.63 1019.70 1019.80 1019.90 1020.01 1020.12 1020.23 1020.34 1020.43 1020.51 1020.58 1020.64 1020.68
1017.99 1018.09 1018.21 1018.35 1018.48 1018.59 1018.67 1018.70 1018.68 1018.60 1018.45 1018.24 1017.98 1017.69 1017.39 1017.13 1016.92 1016.80 1016.78 1016.87 1017.06 1017.32 1017.63 1017.95 1018.26 1018.53 1018.75 1018.92 1019.04 1019.12 1019.17 1019.21 1019.26 1019.31 1019.38 1019.47 1019.57 1019.69 1019.81 1019.93 1020.04 1020.13 1020.20
1018.25 1018.31 1018.40 1018.51 1018.62 1018.72 1018.80 1018.84 1018.84 1018.79 1018.67 1018.50 1018.26 1017.97 1017.65 1017.31 1017.01 1016.75 1016.58 1016.51 1016.54 1016.68 1016.90 1017.18 1017.49 1017.78 1018.05 1018.26 1018.42 1018.51 1018.56 1018.58 1018.58 1018.59 1018.62 1018.68 1018.77 1018.89 1019.03 1019.18 1019.32 1019.44 1019.54
1018.44 1018.46 1018.52 1018.61 1018.71 1018.81 1018.89 1018.95 1018.97 1018.96 1018.89 1018.76 1018.57 1018.31 1017.98 1017.62 1017.23 1016.86 1016.54 1016.30 1016.17 1016.15 1016.24 1016.43 1016.68 1016.96 1017.23 1017.46 1017.65 1017.76 1017.81 1017.82 1017.80 1017.78 1017.78 1017.81 1017.88 1018.00 1018.14 1018.31 1018.47 1018.61 1018.73
1018.53 1018.52 1018.56 1018.63 1018.72 1018.82 1018.91 1018.98 1019.04 1019.07 1019.07 1019.00 1018.87 1018.66 1018.37 1018.00 1017.57 1017.11 1016.66 1016.26 1015.95 1015.76 1015.69 1015.73 1015.88 1016.09 1016.33 1016.56 1016.76 1016.89 1016.97 1016.98 1016.97 1016.94 1016.93 1016.94 1017.00 1017.10 1017.23 1017.39 1017.55 1017.70 1017.82
1018.52 1018.48 1018.49 1018.55 1018.64 1018.74 1018.84 1018.94 1019.04 1019.12 1019.17 1019.18 1019.13 1019.00 1018.76 1018.42 1017.99 1017.48 1016.93 1016.39 1015.91 1015.53 1015.27 1015.15 1015.15 1015.25 1015.42 1015.62 1015.81 1015.97 1016.07 1016.12 1016.14 1016.13 1016.12 1016.13 1016.18 1016.25 1016.36 1016.49 1016.63 1016.76 1016.88
1018.42 1018.35 1018.35 1018.40 1018.49 1018.59 1018.71 1018.83 1018.96 1019.08 1019.19 1019.28 1019.31 1019.26 1019.10 1018.82 1018.41 1017.89 1017.28 1016.64 1016.02 1015.46 1015.01 1014.70 1014.53 1014.49 1014.56 1014.70 1014.87 1015.04 1015.18 1015.29 1015.35 1015.38 1015.40 1015.42 1015.46 1015.51 1015.59 1015.68 1015.78 1015.87 1015.96
1018.28 1018.18 1018.17 1018.21 1018.29 1018.40 1018.53 1018.66 1018.80 1018.96 1019.11 1019.25 1019.35 1019.38 1019.31 1019.11 1018.76 1018.26 1017.64 1016.94 1016.21 1015.51 1014.89 1014.40 1014.06 1013.87 1013.82 1013.88 1014.01 1014.18 1014.35 1014.50 1014.62 1014.71 1014.77 1014.81 1014.84 1014.88 1014.91 1014.96 1015.00 1015.05 1015.10
1018.11 1018.00 1017.97 1018.01 1018.09 1018.20 1018.32 1018.45 1018.58 1018.74 1018.90 1019.07 1019.22 1019.31 1019.32 1019.20 1018.93 1018.49 1017.90 1017.20 1016.42 1015.62 1014.88 1014.24 1013.74 1013.40 1013.22 1013.19 1013.26 1013.41 1013.60 1013.79 1013.96 1014.09 1014.19 1014.26 1014.29 1014.31 1014.31 1014.31 1014.31 1014.31 1014.31
1017.95 1017.83 1017.79 1017.82 1017.89 1017.98 1018.08 1018.19 1018.30 1018.42 1018.56 1018.72 1018.88 1019.01 1019.08 1019.04 1018.86 1018.51 1017.99 1017.33 1016.56 1015.73 1014.92 1014.17 1013.55 1013.09 1012.79 1012.65 1012.65 1012.75 1012.92 1013.12 1013.32 1013.49 1013.62 1013.70 1013.75 1013.76 1013.74 1013.70 1013.66 1013.62 1013.59
1017.77 1017.65 1017.61 1017.63 1017.69 1017.75 1017.82 1017.87 1017.92 1017.99 1018.07 1018.19 1018.32 1018.46 1018.56 1018.58 1018.49 1018.25 1017.84 1017.27 1016.56 1015.77 1014.95 1014.17 1013.47 1012.91 1012.50 1012.26 1012.17 1012.20 1012.32 1012.49 1012.68 1012.86 1013.00 1013.10 1013.15 1013.16 1013.13 1013.08 1013.01 1012.95 1012.89
1017.56 1017.45 1017.41 1017.42 1017.45 1017.48 1017.50 1017.49 1017.46 1017.44 1017.44 1017.47 1017.55 1017.66 1017.77 1017.84 1017.84 1017.70 1017.42 1016.98 1016.39 1015.69 1014.93 1014.16 1013.44 1012.82 1012.33 1011.99 1011.80 1011.73 1011.77 1011.88 1012.02 1012.17 1012.30 1012.39 1012.45 1012.46 1012.43 1012.38 1012.32 1012.25 1012.19
1017.27 1017.17 1017.14 1017.14 1017.15 1017.14 1017.10 1017.01 1016.90 1016.78 1016.68 1016.62 1016.62 1016.68 1016.78 1016.87 1016.93 1016.90 1016.76 1016.46 1016.03 1015.46 1014.81 1014.10 1013.41 1012.77 1012.23 1011.80 1011.51 1011.34 1011.27 1011.28 1011.34 1011.43 1011.52 1011.58 1011.63 1011.64 1011.63 1011.59 1011.55 1011.50 1011.45
1016.86 1016.79 1016.76 1016.75 1016.74 1016.69 1016.60 1016.45 1016.26 1016.04 1015.84 1015.69 1015.61 1015.60 1015.66 1015.76 1015.87 1015.93 1015.91 1015.77 1015.49 1015.08 1014.56 1013.97 1013.34 1012.72 1012.15 1011.67 1011.28 1011.00 1010.81 1010.70 1010.66 1010.66 1010.67 1010.70 1010.72 1010.73 1010.72 1010.71 1010.69 1010.67 1010.65
1016.32 1016.26 1016.24 1016.23 1016.20 1016.13 1016.00 1015.80 1015.55 1015.26 1014.99 1014.75 1014.59 1014.52 1014.54 1014.63 1014.76 1014.89 1014.97 1014.96 1014.83 1014.58 1014.21 1013.73 1013.20 1012.63 1012.07 1011.55 1011.09 1010.71 1010.40 1010.17 1010.01 1009.90 1009.83 1009.78 1009.76 1009.75 1009.75 1009.75 1009.76 1009.77 1009.78
1015.63 1015.60 1015.58 1015.57 1015.53 1015.45 1015.30 1015.08 1014.80 1014.49 1014.17 1013.88 1013.67 1013.54 1013.52 1013.59 1013.73 1013.89 1014.03 1014.12 1014.11 1013.99 1013.75 1013.41 1012.97 1012.48 1011.95 1011.43 1010.93 1010.47 1010.07 1009.72 1009.44 1009.22 1009.04 1008.92 1008.83 1008.78 1008.76 1008.76 1008.79 1008.82 1008.86
1014.83 1014.80 1014.79 1014.78 1014.75 1014.68 1014.54 1014.33 1014.06 1013.75 1013.43 1013.13 1012.89 1012.74 1012.69 1012.73 1012.84 1013.01 1013.18 1013.32 1013.39 1013.37 1013.24 1013.01 1012.68 1012.26 1011.79 1011.29 1010.78 1010.28 1009.81 1009.38 1008.99 1008.66 1008.38 1008.16 1007.99 1007.88 1007.81 1007.79 1007.80 1007.84 1007.88
1013.97 1013.94 1013.93 1013.92 1013.90 1013.85 1013.75 1013.58 1013.35 1013.08 1012.79 1012.52 1012.29 1012.13 1012.06 1012.07 1012.15 1012.29 1012.45 1012.60 1012.71 1012.74 1012.69 1012.55 1012.31 1011.98 1011.58 1011.13 1010.64 1010.14 1009.63 1009.14 1008.67 1008.25 1007.87 1007.55 1007.29 1007.09 1006.96 1006.88 1006.85 1006.86 1006.89
1013.12 1013.07 1013.06 1013.05 1013.05 1013.02 1012.96 1012.85 1012.69 1012.48 1012.26 1012.04 1011.84 1011.70 1011.61 1011.60 1011.64 1011.74 1011.86 1011.98 1012.08 1012.14 1012.12 1012.04 1011.87 1011.62 1011.30 1010.91 1010.48 1010.00 1009.50 1008.98 1008.47 1007.98 1007.52 1007.11 1006.75 1006.45 1006.23 1006.06 1005.96 1005.91 1005.90
1012.34 1012.27 1012.24 1012.24 1012.24 1012.24 1012.22 1012.17 1012.08 1011.95 1011.80 1011.65 1011.50 1011.38 1011.30 1011.26 1011.26 1011.31 1011.37 1011.44 1011.51 1011.54 1011.54 1011.48 1011.36 1011.18 1010.93 1010.62 1010.26 1009.84 1009.37 1008.87 1008.35 1007.82 1007.30 1006.81 1006.36 1005.96 1005.63 1005.37 1005.18 1005.05 1004.97
1011.72 1011.62 1011.57 1011.55 1011.55 1011.57 1011.58 1011.57 1011.54 1011.48 1011.40 1011.30 1011.20 1011.11 1011.03 1010.98 1010.94 1010.93 1010.93 1010.94 1010.94 1010.94 1010.91 1010.86 1010.77 1010.64 1010.46 1010.23 1009.94 1009.59 1009.18 1008.73 1008.22 1007.69 1007.15 1006.60 1006.08 1005.60 1005.17 1004.80 1004.51 1004.29 1004.13
1011.29 1011.16 1011.08 1011.04 1011.03 1011.04 1011.06 1011.07 1011.06 1011.05 1011.01 1010.96 1010.89 1010.82 1010.75 1010.67 1010.60 1010.54 1010.48 1010.42 1010.36 1010.30 1010.24 1010.18 1010.10 1009.99 1009.86 1009.70 1009.48 1009.21 1008.87 1008.48 1008.03 1007.53 1006.99 1006.43 1005.87 1005.33 1004.82 1004.37 1003.98 1003.67 1003.42
1011.08 1010.92 1010.81 1010.74 1010.70 1010.68 1010.68 1010.68 1010.67 1010.66 1010.63 1010.59 1010.53 1010.46 1010.38 1010.29 1010.19 1010.08 1009.96 1009.85 1009.73 1009.62 1009.52 1009.42 1009.33 1009.24 1009.14 1009.01 1008.85 1008.65 1008.39 1008.07 1007.69 1007.25 1006.75 1006.22 1005.66 1005.10 1004.55 1004.04 1003.58 1003.19 1002.87
1011.06 1010.88 1010.74 1010.64 1010.56 1010.50 1010.45 1010.41 1010.36 1010.31 1010.25 1010.19 1010.11 1010.02 1009.92 1009.81 1009.68 1009.54 1009.38 1009.22 1009.06 1008.90 1008.75 1008.62 1008.50 1008.40 1008.30 1008.19 1008.07 1007.92 1007.73 1007.49 1007.18 1006.82 1006.40 1005.92 1005.41 1004.87 1004.33 1003.80 1003.31 1002.86 1002.48
Thickness
5777 5776 5774 5773 5774 5772 5771 5769 5769 5767 5767 5767 5767 5767 5767 5766 5766 5765 5762 5757 5754 5751 5749 5748 5746 5744 5742 5740 5739 5738 5737 5736 5734 5733 5732 5731 5730 5729 5728 5727 5727 5726 5725
5777 5776 5774 5772 5773 5772 5771 5769 5769 5768 5768 5768 5767 5767 5766 5766 5765 5764 5763 5760 5755 5753 5751 5749 5747 5745 5743 5741 5740 5739 5738 5736 5735 5734 5732 5731 5730 5729 5728 5727 5727 5726 5725
5776 5774 5774 5773 5772 5771 5769 5768 5768 5768 5768 5768 5767 5767 5767 5766 5765 5764 5763 5762 5759 5755 5753 5751 5748 5746 5744 5743 5741 5740 5738 5737 5736 5735 5733 5732 5730 5729 5729 5728 5727 5726 5725
5775 5774 5774 5773 5771 5770 5770 5769 5768 5768 5767 5767 5767 5767 5767 5765 5765 5764 5764 5762 5761 5759 5756 5752 5750 5747 5745 5743 5742 5740 5739 5738 5737 5735 5734 5733 5731 5730 5729 5728 5727 5727 5726
5776 5775 5774 5772 5771 5771 5770 5770 5768 5767 5766 5765 5766 5767 5768 5767 5765 5765 5764 5762 5760 5759 5758 5755 5751 5749 5746 5744 5743 5741 5740 5739 5738 5736 5735 5734 5732 5731 5730 5728 5727 5727 5726
5776 5775 5774 5772 5772 5771 5769 5768 5765 5765 5765 5764 5767 5767 5767 5767 5766 5765 5764 5764 5761 5760 5759 5757 5754 5751 5748 5745 5743 5742 5740 5739 5738 5737 5736 5734 5733 5732 5730 5729 5728 5727 5726
5776 5774 5775 5772 5771 5770 5768 5768 5766 5764 5764 5764 5763 5762 5765 5767 5766 5765 5764 5764 5762 5760 5758 5756 5754 5753 5751 5747 5744 5742 5740 5739 5739 5737 5736 5735 5733 5732 5730 5729 5729 5728 5727
5776 5777 5774 5774 5772 5769 5767 5766 5764 5763 5763 5763 5760 5757 5756 5759 5762 5766 5764 5762 5761 5760 5758 5757 5753 5751 5749 5748 5746 5742 5740 5739 5738 5737 5736 5734 5733 5732 5730 5730 5729 5728 5728
5776 5775 5774 5773 5772 5771 5769 5765 5764 5761 5759 5761 5762 5757 5752 5751 5755 5761 5760 5760 5758 5757 5757 5756 5753 5751 5748 5747 5745 5742 5740 5738 5737 5736 5734 5734 5732 5731 5730 5729 5729 5728 5728
5776 5775 5774 5772 5771 5770 5767 5765 5765 5762 5758 5758 5760 5758 5755 5753 5748 5750 5756 5759 5757 5755 5754 5754 5753 5750 5747 5746 5743 5740 5738 5736 5735 5734 5733 5732 5731 5730 5730 5729 5728 5727 5727
5776 5775 5773 5771 5769 5768 5766 5763 5761 5759 5759 5757 5757 5756 5754 5752 5751 5746 5745 5749 5753 5755 5754 5752 5751 5749 5747 5744 5742 5740 5737 5735 5733 5732 5731 5730 5729 5729 5728 5728 5727 5726 5726
5777 5775 5773 5770 5769 5767 5764 5762 5760 5759 5757 5755 5755 5755 5753 5751 5749 5747 5744 5744 5746 5750 5751 5750 5749 5747 5745 5743 5741 5737 5734 5732 5731 5730 5728 5728 5727 5726 5726 5725 5725 5724 5724
5776 5773 5773 5769 5768 5765 5763 5761 5759 5757 5756 5753 5752 5753 5753 5752 5750 5748 5744 5743 5742 5746 5747 5748 5748 5745 5744 5741 5738 5734 5732 5730 5729 5727 5726 5725 5725 5724 5723 5723 5723 5722 5722
5775 5773 5770 5768 5766 5763 5762 5760 5759 5757 5755 5752 5752 5750 5750 5751 5750 5748 5744 5740 5737 5741 5743 5743 5745 5743 5741 5739 5736 5732 5731 5728 5726 5725 5723 5723 5722 5721 5721 5720 5720 5719 5719
5774 5772 5769 5767 5764 5762 5760 5758 5757 5754 5753 5752 5752 5750 5749 5750 5748 5747 5745 5741 5735 5732 5735 5739 5740 5741 5738 5735 5732 5731 5729 5726 5724 5722 5721 5720 5719 5718 5718 5717 5717 5716 5716
5770 5768 5766 5764 5762 5760 5758 5756 5755 5753 5751 5750 5748 5747 5745 5747 5746 5745 5743 5741 5737 5732 5730 5737 5736 5738 5734 5733 5730 5728 5727 5723 5721 5720 5718 5717 5716 5715 5715 5714 5714 5713 5713
5767 5765 5763 5762 5760 5758 5756 5754 5754 5751 5749 5748 5746 5745 5742 5741 5741 5742 5741 5738 5736 5733 5728 5732 5735 5734 5729 5727 5726 5725 5724 5723 5722 5718 5716 5715 5714 5713 5712 5711 5711 5710 5710
5765 5763 5761 5759 5758 5757 5754 5752 5750 5749 5747 5745 5743 5741 5739 5739 5736 5736 5735 5734 5733 5730 5727 5724 5727 5728 5725 5724 5722 5720 5722 5722 5720 5717 5714 5712 5711 5710 5709 5708 5707 5707 5706
5762 5760 5758 5756 5755 5753 5751 5750 5747 5746 5744 5742 5740 5738 5736 5734 5732 5732 5730 5730 5729 5729 5726 5723 5723 5723 5723 5721 5718 5717 5718 5716 5717 5715 5712 5710 5708 5707 5706 5705 5704 5703 5702
5759 5757 5755 5753 5752 5750 5748 5746 5744 5742 5740 5738 5737 5735 5733 5731 5728 5726 5726 5724 5723 5722 5720 5719 5719 5719 5717 5716 5712 5711 5711 5711 5712 5713 5711 5708 5706 5704 5703 5702 5701 5699 5698
5756 5754 5751 5750 5748 5746 5745 5741 5739 5738 5735 5734 5732 5731 5730 5727 5723 5721 5721 5720 5718 5716 5716 5714 5713 5713 5712 5708 5707 5706 5705 5706 5707 5708 5706 5706 5705 5704 5703 5700 5698 5696 5694
5751 5749 5746 5745 5744 5744 5738 5733 5731 5733 5731 5729 5728 5727 5726 5723 5719 5714 5712 5711 5710 5709 5709 5708 5708 5706 5704 5704 5701 5700 5699 5698 5697 5702 5699 5700 5702 5701 5701 5700 5696 5693 5690
5746 5743 5741 5740 5739 5737 5731 5727 5724 5726 5727 5726 5724 5722 5722 5722 5716 5714 5710 5706 5705 5702 5701 5701 5701 5701 5700 5699 5695 5694 5692 5692 5691 5695 5692 5692 5695 5695 5696 5696 5692 5688 5686
5740 5738 5737 5735 5733 5732 5726 5721 5719 5720 5722 5721 5719 5717 5714 5713 5712 5707 5706 5705 5704 5703 5700 5697 5697 5697 5696 5693 5690 5688 5687 5687 5687 5687 5686 5684 5687 5688 5691 5690 5687 5684 5682
5734 5733 5731 5730 5727 5725 5719 5715 5711 5715 5716 5715 5714 5712 5709 5707 5702 5698 5697 5698 5698 5698 5696 5693 5691 5690 5687 5685 5682 5681 5680 5679 5680 5682 5682 5679 5680 5681 5683 5685 5683 5680 5678
5728 5727 5726 5724 5722 5719 5714 5710 5705 5710 5710 5710 5709 5707 5702 5699 5694 5690 5690 5690 5690 5691 5692 5690 5686 5683 5682 5680 5676 5674 5675 5673 5673 5674 5677 5672 5673 5673 5674 5679 5679 5677 5674